Munising, MI

10:48 PM EDT on August 21, 2017 (GMT -0400)
Munising

Weather History for KP53 - January, 2012

Change the Weather History Date:

Monday, January 30, 2012

  Actual Average (KISQ) Record (KISQ)
Temperature  
Mean Temperature 14 °F -  
Max Temperature 27 °F 25 °F 38 °F (1968)
Min Temperature 1 °F 7 °F -22 °F (1951)
Degree Days  
Heating Degree Days 51    
Moisture  
Dew Point 13 °F    
Average Humidity 81    
Maximum Humidity 88    
Minimum Humidity 70    
Precipitation  
Precipitation 0.06 in - - ()
Sea Level Pressure  
Sea Level Pressure 29.98 in    
Wind  
Wind Speed 7 mph (South)    
Max Wind Speed 12 mph    
Max Gust Speed 20 mph    
Averages and records for this station are not official NWS values.
T = Trace of Precipitation, MM = Missing Value Source: NWS Daily Summary

Daily Weather History Graph

Daily Weather History Graph

Search for Another Location

Airport or City:

Trip Planner

Search our weather history database for the weather conditions in past years. The results will help you decide how hot, cold, wet, or windy it might be!

Date:

Astronomy

Jan. 30, 2012 Rise Set
Actual Time 8:12 AM EST 5:47 PM EST
Civil Twilight 7:40 AM EST 6:19 PM EST
Nautical Twilight 7:04 AM EST 6:56 PM EST
Astronomical Twilight 6:28 AM EST 7:31 PM EST
Moon 11:05 AM EST (1/30) 12:59 AM EST (1/30)
Length of Visible Light 10h 39m
Length of Day
9h 34m
Waxing Crescent, 46% of the Moon is Illuminated
Jan 30
Waxing Crescent
Jan 30
First Quarter
Feb 7
Full
Feb 14
Last Quarter
Feb 21
New

Hourly Weather History & Observations

Time (EST) Temp. Windchill Dew Point Humidity Pressure Visibility Wind Dir Wind Speed Gust Speed Precip Events Conditions
12:56 AM 12.0 °F 0.5 °F 5.0 °F 73% 30.13 in - SW 8.1 mph - N/A   Unknown
1:56 AM 10.9 °F -2.6 °F 3.9 °F 73% 30.13 in - SW 10.4 mph - N/A   Unknown
2:56 AM 9.0 °F -4.2 °F 3.0 °F 77% 30.14 in - SSW 9.2 mph - N/A   Unknown
3:56 AM 8.1 °F -4.3 °F 1.9 °F 76% 30.12 in - South 8.1 mph - N/A   Unknown
4:56 AM 5.0 °F -5.6 °F -0.0 °F 80% 30.11 in - South 5.8 mph - N/A   Unknown
5:56 AM 3.0 °F -9.3 °F -0.9 °F 84% 30.11 in - South 6.9 mph - N/A   Unknown
6:56 AM 1.9 °F -9.2 °F -2.9 °F 80% 30.09 in - SSW 5.8 mph - N/A   Unknown
7:56 AM 8.1 °F -0.5 °F 1.0 °F 73% 30.08 in - SSW 4.6 mph - N/A   Unknown
8:56 AM 10.0 °F 1.8 °F 1.9 °F 70% 30.08 in - South 4.6 mph - N/A   Unknown
9:56 AM 12.9 °F 3.8 °F 7.0 °F 77% 30.06 in - South 5.8 mph - N/A   Unknown
10:56 AM 18.0 °F 9.8 °F 14.0 °F 84% 30.04 in - South 5.8 mph - 0.01 in   Unknown
11:56 AM 18.0 °F 12.7 °F 14.0 °F 84% 30.01 in - South 3.5 mph - 0.02 in   Unknown
1:56 PM 21.9 °F 13.4 °F 17.1 °F 82% 29.92 in - South 6.9 mph - 0.01 in   Unknown
2:56 PM 24.1 °F 16.0 °F 19.9 °F 84% 29.87 in - SSE 6.9 mph - N/A   Unknown
3:56 PM 27.0 °F 16.7 °F 21.9 °F 81% 29.85 in - SSE 11.5 mph 19.6 mph N/A   Unknown
4:56 PM 27.0 °F 18.0 °F 23.0 °F 85% 29.85 in - SSE 9.2 mph - 0.02 in   Unknown
5:56 PM 27.0 °F 17.3 °F 23.0 °F 85% 29.85 in - SSE 10.4 mph 16.1 mph N/A   Unknown
6:56 PM 26.1 °F 16.8 °F 21.9 °F 84% 29.86 in - SSE 9.2 mph 17.3 mph N/A   Unknown
7:56 PM 26.1 °F 17.6 °F 21.9 °F 84% 29.86 in - South 8.1 mph - N/A   Unknown
8:56 PM 26.1 °F 20.5 °F 23.0 °F 88% 29.83 in - South 4.6 mph - N/A   Unknown
9:56 PM 26.1 °F 20.5 °F 23.0 °F 88% 29.84 in - South 4.6 mph - N/A   Unknown
10:56 PM 26.1 °F 19.4 °F 23.0 °F 88% 29.83 in - South 5.8 mph - N/A   Unknown
11:56 PM 26.1 °F - 23.0 °F 88% 29.82 in - Calm Calm - N/A   Unknown